Avoca, PA

11:09 AM EST on November 17, 2019 (GMT -0500)
Wilkes-Barre-Scranton International

Weather History for KAVP - October, 2019

Change the Weather History Date:

Wednesday, October 23, 2019

  Actual Average Record
Temperature  
Mean Temperature 51 °F 49 °F  
Max Temperature 62 °F 58 °F 82 °F (1947)
Min Temperature 40 °F 39 °F 25 °F (1969)
Degree Days  
Heating Degree Days 14 16  
Month to date heating degree days 228 298  
Since 1 July heating degree days 266 460  
Cooling Degree Days 0 0  
Month to date cooling degree days 16 0  
Year to date cooling degree days 846 576  
Growing Degree Days 4 (Base 50)    
Moisture  
Dew Point 45 °F    
Average Humidity 68    
Maximum Humidity 100    
Minimum Humidity 36    
Precipitation  
Precipitation 0.00 in 0.10 in 2.20 in (1937)
Month to date precipitation 3.75 2.55  
Year to date precipitation 42.62 31.65  
Sea Level Pressure  
Sea Level Pressure 29.93 in    
Wind  
Wind Speed 8 mph (SW)    
Max Wind Speed 22 mph    
Max Gust Speed 30 mph    
Visibility 7 miles    
Events Fog    
T = Trace of Precipitation, MM = Missing Value Source: NWS Daily Summary

Daily Weather History Graph

Daily Weather History Graph

Search for Another Location

Airport or City:

Astronomy

Oct. 23, 2019 Rise Set
Actual Time 7:23 AM EDT 6:10 PM EDT
Civil Twilight 6:55 AM EDT 6:38 PM EDT
Nautical Twilight 6:22 AM EDT 7:10 PM EDT
Astronomical Twilight 5:50 AM EDT 7:42 PM EDT
Moon 1:34 AM EDT (10/23) 4:03 PM EDT (10/23)
Length of Visible Light 11h 43m
Length of Day
10h 46m
Waning Crescent, 27% of the Moon is Illuminated
Oct 23
Waning Crescent
Oct 27
New
Nov 4
First Quarter
Nov 12
Full
Nov 19
Last Quarter

Hourly Weather History & Observations

Time (EDT) Temp. Windchill Dew Point Humidity Pressure Visibility Wind Dir Wind Speed Gust Speed Precip Events Conditions
12:11 AM 57.9 °F - 57.0 °F 97% 29.82 in 0.5 mi SW 5.8 mph - N/A Fog Fog
12:23 AM 57.0 °F - 55.9 °F 96% 29.82 in 2.0 mi SW 6.9 mph - N/A   Overcast
12:30 AM 57.0 °F - 55.9 °F 96% 29.82 in 6.0 mi SW 8.1 mph - N/A   Overcast
12:44 AM 57.0 °F - 55.0 °F 93% 29.82 in 10.0 mi SW 6.9 mph - N/A   Overcast
12:54 AM 55.9 °F - 55.0 °F 97% 29.82 in 10.0 mi SW 5.8 mph - N/A   Overcast
1:52 AM 55.4 °F - 53.6 °F 94% 29.83 in 10.0 mi SW 3.5 mph - N/A   Mostly Cloudy
1:54 AM 55.0 °F - 53.1 °F 93% 29.83 in 10.0 mi SW 4.6 mph - N/A   Mostly Cloudy
2:04 AM 54.0 °F - 53.1 °F 97% 29.83 in 10.0 mi SSW 3.5 mph - N/A   Scattered Clouds
2:12 AM 54.0 °F - 52.0 °F 93% 29.83 in 10.0 mi SSW 4.6 mph - N/A   Partly Cloudy
2:54 AM 53.1 °F - 52.0 °F 96% 29.83 in 9.0 mi SW 4.6 mph - N/A   Scattered Clouds
3:27 AM 53.1 °F - 52.0 °F 96% 29.83 in 4.0 mi SW 5.8 mph - N/A   Mostly Cloudy
3:54 AM 53.1 °F - 52.0 °F 96% 29.83 in 6.0 mi SW 4.6 mph - N/A   Overcast
4:06 AM 53.1 °F - 52.0 °F 96% 29.84 in 6.0 mi SW 5.8 mph - N/A   Overcast
4:39 AM 53.1 °F - 51.1 °F 93% 29.86 in 7.0 mi WSW 5.8 mph - N/A   Overcast
4:54 AM 52.0 °F - 51.1 °F 97% 29.86 in 7.0 mi SW 4.6 mph - N/A   Overcast
5:21 AM 51.1 °F - 50.0 °F 96% 29.87 in 2.5 mi SSW 4.6 mph - N/A   Scattered Clouds
5:30 AM 51.1 °F - 50.0 °F 96% 29.87 in 5.0 mi SW 4.6 mph - N/A   Partly Cloudy
5:52 AM 51.8 °F - 48.2 °F 88% 29.88 in 5.0 mi SSW 4.6 mph - N/A   Partly Cloudy
5:54 AM 51.1 °F - 50.0 °F 96% 29.88 in 5.0 mi SSW 4.6 mph - N/A   Partly Cloudy
6:21 AM 50.0 °F - 48.9 °F 96% 29.89 in 1.0 mi West 4.6 mph - N/A   Mist
6:52 AM 51.8 °F - 50.0 °F 94% 29.90 in 0.2 mi WSW 4.6 mph - N/A Fog Fog
6:54 AM 51.1 °F - 50.0 °F 96% 29.90 in 0.2 mi WSW 5.8 mph - N/A Fog Fog
7:03 AM 51.8 °F - 50.0 °F 94% 29.90 in 0.2 mi SW 3.5 mph - N/A Fog Fog
7:12 AM 50.0 °F - 50.0 °F 100% 29.90 in 1.0 mi SW 5.8 mph - N/A   Mist
7:20 AM 50.0 °F - 48.9 °F 96% 29.91 in 3.0 mi SW 5.8 mph - N/A   Overcast
7:27 AM 50.0 °F - 48.9 °F 96% 29.91 in 2.0 mi SW 4.6 mph - N/A   Overcast
7:42 AM 48.9 °F - 48.0 °F 97% 29.91 in 4.0 mi SW 4.6 mph - N/A   Mostly Cloudy
7:54 AM 48.9 °F - 48.0 °F 97% 29.91 in 4.0 mi SSW 4.6 mph - N/A   Scattered Clouds
8:19 AM 48.9 °F - 48.9 °F 100% 29.93 in 3.0 mi SW 8.1 mph - N/A   Mostly Cloudy
8:27 AM 48.9 °F - 46.9 °F 93% 29.94 in 5.0 mi SW 9.2 mph - N/A   Scattered Clouds
9:54 AM 53.1 °F - 48.0 °F 83% 29.96 in 9.0 mi WSW 6.9 mph - N/A   Clear
10:54 AM 55.9 °F - 45.0 °F 67% 29.97 in 10.0 mi SW 8.1 mph - N/A   Clear
11:54 AM 60.1 °F - 44.1 °F 55% 29.96 in 10.0 mi West 10.4 mph - N/A   Partly Cloudy
12:54 PM 57.9 °F - 37.9 °F 47% 29.98 in 10.0 mi WSW 16.1 mph 21.9 mph N/A   Scattered Clouds
1:54 PM 61.0 °F - 36.0 °F 39% 29.98 in 10.0 mi West 16.1 mph 23.0 mph N/A   Clear
2:54 PM 61.0 °F - 35.1 °F 38% 29.98 in 10.0 mi West 18.4 mph 25.3 mph N/A   Clear
3:54 PM 61.0 °F - 33.1 °F 35% 29.99 in 10.0 mi WSW 18.4 mph 23.0 mph N/A   Clear
4:54 PM 61.0 °F - 33.1 °F 35% 30.01 in 10.0 mi West 15.0 mph 23.0 mph N/A   Clear
5:54 PM 57.9 °F - 30.0 °F 35% 30.04 in 10.0 mi West 15.0 mph 25.3 mph N/A   Clear
6:54 PM 55.0 °F - 30.0 °F 38% 30.07 in 10.0 mi WSW 9.2 mph - N/A   Clear
7:54 PM 53.1 °F - 30.9 °F 43% 30.12 in 10.0 mi SW 5.8 mph - N/A   Clear
8:54 PM 46.9 °F - 34.0 °F 61% 30.14 in 10.0 mi South 4.6 mph - N/A   Clear
9:54 PM 46.0 °F 43.9 °F 34.0 °F 63% 30.15 in 10.0 mi SSW 4.6 mph - N/A   Clear
10:54 PM 45.0 °F - 33.1 °F 63% 30.18 in 10.0 mi Calm Calm - N/A   Clear
11:54 PM 43.0 °F - 34.0 °F 71% 30.19 in 10.0 mi Calm Calm - N/A   Clear